1486533600.93,49675,9.81,72968.8,-9.35,-36.37,-36.61,0,*55
1486533602.19,49676,9.81,72964.5,-9.33,-36.19,-36.61,0,*5C
1486533603.43,49677,9.81,72966.8,-9.35,-36.19,-36.61,0,*5B
1486533604.7,49678,9.81,72968.3,-9.35,-36.37,-36.61,0,*58
1486533605.96,49679,9.81,72964.3,-9.35,-36.37,-36.61,0,*59
1486533607.23,49680,9.81,72964.3,-9.35,-36.37,-36.61,0,*5F
1486533608.45,49681,9.81,72968.5,-9.35,-36.19,-36.55,0,*55
1486533609.67,49682,9.81,72970.3,-9.35,-36.19,-36.55,0,*56
1486533610.91,49683,9.81,72966.3,-9.35,-36.43,-36.61,0,*5F
1486533612.18,49684,9.81,72964.8,-9.33,-36.37,-36.73,0,*5E
1486533613.42,49685,9.81,72968.8,-9.35,-36.55,-36.61,0,*5E
1486533614.7,49686,9.81,72966.3,-9.33,-36.25,-36.55,0,*5B
1486533615.99,49687,9.81,72968.3,-9.33,-36.37,-36.61,0,*5E
1486533617.25,49688,9.81,72964.3,-9.35,-36.37,-36.61,0,*57
1486533618.53,49689,9.81,72964.8,-9.33,-36.25,-36.55,0,*54
1486533619.81,49690,9.81,72968.8,-9.33,-36.25,-36.55,0,*5C
1486533621.05,49691,9.81,72966.5,-9.35,-36.43,-36.61,0,*5C
1486533622.34,49692,9.81,72964.0,-9.33,-36.37,-36.61,0,*5A
1486533623.61,49693,9.81,72964.8,-9.33,-36.37,-36.55,0,*5C
1486533624.87,49694,9.81,72968.3,-9.35,-36.37,-36.61,0,*5A
1486533626.14,49695,9.81,72966.8,-9.31,-36.25,-36.37,0,*5F
1486533627.37,49696,9.81,72968.3,-9.31,-36.19,-36.37,0,*53
1486533628.62,49697,9.81,72968.8,-9.31,-36.37,-36.67,0,*5B
1486533629.88,49698,9.81,72964.3,-9.31,-36.13,-36.49,0,*5E
1486533631.1,49699,9.81,72966.5,-9.31,-36.31,-36.67,0,*53
1486533632.33,49700,9.81,72966.5,-9.31,-36.31,-36.55,0,*53
1486533633.57,49701,9.81,72970.3,-9.31,-36.31,-36.49,0,*5F
1486533634.79,49702,9.81,72966.5,-9.31,-36.31,-36.55,0,*51
1486533636.05,49703,9.81,72968.5,-9.31,-36.13,-36.49,0,*5D
1486533637.3,49704,9.81,72970.3,-9.29,-36.19,-36.55,0,*54
1486533638.54,49705,9.81,72968.8,-9.31,-36.31,-36.49,0,*5B
1486533639.79,49706,9.81,72968.3,-9.29,-36.31,-36.55,0,*5C
1486533641.02,49707,9.81,72966.5,-9.31,-36.31,-36.67,0,*55
1486533642.26,49708,9.81,72966.5,-9.29,-36.19,-36.55,0,*58
1486533643.55,49709,9.81,72968.8,-9.29,-36.13,-36.37,0,*57
1486533644.79,49710,9.81,72970.0,-9.31,-36.31,-36.49,0,*5F
1486533646.03,49711,9.81,72964.5,-9.31,-36.01,-36.49,0,*5D
1486533647.31,49712,9.81,72968.3,-9.29,-36.13,-36.37,0,*5D
1486533648.57,49713,9.81,72964.3,-9.31,-36.13,-36.37,0,*55
1486533649.83,49714,9.81,72964.3,-9.29,-36.19,-36.37,0,*51
1486533651.08,49715,9.81,72970.8,-9.29,-36.19,-36.55,0,*54
1486533652.36,49716,9.81,72968.5,-9.29,-36.37,-36.67,0,*5A
1486533653.61,49717,9.81,72968.8,-9.29,-36.31,-36.55,0,*5C
1486533654.86,49718,9.81,72968.3,-9.29,-36.31,-36.55,0,*53
1486533656.11,49719,9.81,72968.0,-9.29,-36.31,-36.55,0,*52
1486533657.4,49720,9.81,72970.3,-9.29,-36.13,-36.49,0,*55
1486533658.64,49721,9.81,72966.0,-9.29,-36.31,-36.67,0,*58
1486533659.91,49722,9.81,72968.8,-9.27,-36.25,-36.49,0,*5C
1486533661.16,49723,9.81,72970.5,-9.27,-36.25,-36.43,0,*57
1486533662.41,49724,9.81,72968.8,-9.29,-36.31,-36.55,0,*5C
1486533663.67,49725,9.81,72970.8,-9.29,-36.19,-36.49,0,*5A
1486533664.91,49726,9.81,72968.3,-9.27,-36.13,-36.43,0,*57
1486533666.17,49727,9.81,72964.8,-9.27,-36.13,-36.49,0,*5C
1486533667.41,49728,9.81,72966.0,-9.23,-36.13,-36.43,0,*5D
1486533668.65,49729,9.81,72968.5,-9.27,-35.95,-36.43,0,*55
1486533669.87,49730,9.81,72970.0,-9.27,-36.07,-36.43,0,*55
1486533671.11,49731,9.81,72970.0,-9.23,-36.07,-36.25,0,*50
1486533672.32,49732,9.81,72968.0,-9.23,-36.07,-36.31,0,*56
1486533673.54,49733,9.81,72964.8,-9.27,-36.07,-36.43,0,*56
1486533674.78,49734,9.81,72968.3,-9.23,-35.95,-36.31,0,*58
1486533676.03,49735,9.81,72970.8,-9.27,-36.07,-36.25,0,*50
1486533677.26,49736,9.81,72970.0,-9.23,-35.89,-36.25,0,*52
1486533678.48,49737,9.81,72970.0,-9.23,-36.07,-36.31,0,*53
1486533679.71,49738,9.81,72970.5,-9.23,-36.31,-36.49,0,*56
1486533680.97,49739,9.81,72966.8,-9.23,-36.25,-36.49,0,*52
1486533682.19,49740,9.81,72968.0,-9.23,-36.07,-36.43,0,*56
1486533683.46,49741,9.81,72964.3,-9.27,-35.95,-36.25,0,*5B
1486533684.7,49742,9.81,72968.5,-9.23,-35.89,-36.25,0,*51
1486533685.97,49743,9.81,72968.0,-9.21,-36.01,-36.25,0,*51
1486533687.24,49744,9.81,72964.3,-9.21,-36.25,-36.43,0,*50
1486533688.45,49745,9.81,72968.5,-9.19,-36.19,-36.43,0,*55
1486533689.72,49746,9.81,72968.5,-9.19,-36.37,-36.61,0,*5A
1486533690.98,49747,9.81,72968.5,-9.21,-36.25,-36.43,0,*53
1486533692.23,49748,9.81,72968.5,-9.19,-36.25,-36.43,0,*57
1486533693.47,49749,9.81,72966.0,-9.21,-36.19,-36.43,0,*52
1486533694.71,49750,9.81,72964.0,-9.21,-36.19,-36.43,0,*5A
1486533695.96,49751,9.81,72968.0,-9.19,-36.25,-36.55,0,*58
1486533697.25,49752,9.81,72970.3,-9.21,-36.25,-36.37,0,*54
1486533698.51,49753,9.81,72964.8,-9.21,-36.01,-36.37,0,*53
1486533699.73,49754,9.81,72966.8,-9.19,-36.07,-36.43,0,*5A
1486533700.98,49755,9.81,72966.0,-9.21,-36.19,-36.37,0,*5C
1486533702.23,49756,9.81,72966.0,-9.21,-36.19,-36.55,0,*5B
1486533703.44,49757,9.81,72970.8,-9.19,-36.19,-36.43,0,*56
1486533704.68,49758,9.81,72968.5,-9.19,-36.19,-36.37,0,*5A
1486533705.92,49759,9.81,72966.3,-9.19,-36.01,-36.37,0,*52
1486533707.17,49760,9.81,72968.5,-9.17,-36.19,-36.37,0,*5F
1486533708.43,49761,9.81,72966.3,-9.17,-36.19,-36.37,0,*5E
1486533709.72,49762,9.81,72968.5,-9.17,-36.13,-36.37,0,*57
1486533710.98,49763,9.81,72966.5,-9.17,-36.13,-36.31,0,*50
1486533712.22,49764,9.81,72968.3,-9.17,-36.01,-36.31,0,*54
1486533713.49,49765,9.81,72966.8,-9.17,-35.95,-36.31,0,*5B
1486533714.75,49766,9.81,72968.8,-9.17,-36.01,-36.37,0,*50
1486533716.03,49767,9.81,72966.8,-9.17,-36.13,-36.37,0,*52
1486533717.32,49768,9.81,72966.3,-9.17,-36.13,-36.49,0,*54
1486533718.58,49769,9.81,72968.8,-9.17,-36.31,-36.49,0,*55
1486533719.84,49770,9.81,72966.8,-9.15,-36.19,-36.37,0,*5C
1486533721.1,49771,9.81,72970.3,-9.17,-36.19,-36.37,0,*5F
1486533722.36,49772,9.81,72970.0,-9.17,-36.19,-36.49,0,*55
1486533723.62,49773,9.81,72970.0,-9.17,-36.19,-36.49,0,*54
1486533724.91,49774,9.81,72966.3,-9.17,-36.13,-36.49,0,*59
1486533726.15,49775,9.81,72968.0,-9.17,-36.19,-36.55,0,*5F
1486533727.41,49776,9.81,72970.8,-9.17,-36.19,-36.49,0,*51
1486533728.67,49777,9.81,72968.8,-9.15,-36.19,-36.37,0,*5B
1486533729.91,49778,9.81,72970.3,-9.15,-36.19,-36.55,0,*50
1486533731.17,49779,9.81,72966.0,-9.15,-36.19,-36.49,0,*5C
1486533732.46,49780,9.81,72966.8,-9.17,-36.13,-36.49,0,*52
1486533733.71,49781,9.81,72970.5,-9.15,-36.31,-36.55,0,*5C
1486533734.98,49782,9.81,72966.3,-9.17,-36.37,-36.55,0,*5B
1486533736.23,49783,9.81,72970.0,-9.17,-36.31,-36.55,0,*5C
1486533737.47,49784,9.81,72968.5,-9.15,-36.19,-36.67,0,*52
1486533738.73,49785,9.81,72966.5,-9.15,-36.31,-36.49,0,*55
1486533739.97,49786,9.81,72970.0,-9.15,-36.19,-36.55,0,*51
1486533741.24,49787,9.81,72970.5,-9.15,-36.31,-36.49,0,*57
1486533742.48,49788,9.81,72966.5,-9.15,-36.31,-36.55,0,*55
1486533743.75,49789,9.81,72970.3,-9.17,-36.37,-36.55,0,*50
1486533745.02,49790,9.81,72968.5,-9.15,-36.49,-36.73,0,*57
1486533746.3,49791,9.81,72970.0,-9.15,-36.13,-36.37,0,*59
1486533747.58,49792,9.81,72974.8,-9.15,-36.13,-36.37,0,*5A
1486533748.84,49793,9.81,72970.3,-9.15,-36.13,-36.55,0,*5F
1486533750.11,49794,9.81,72968.0,-9.15,-35.95,-36.19,0,*5D
1486533751.37,49795,9.81,72972.5,-9.15,-36.01,-36.37,0,*5E
1486533752.6,49796,9.81,72970.3,-9.13,-36.13,-36.43,0,*5B
1486533753.85,49797,9.81,72968.0,-9.13,-36.07,-36.25,0,*5F
1486533755.09,49798,9.81,72968.8,-9.13,-36.13,-36.31,0,*50
1486533756.35,49799,9.81,72968.5,-9.11,-36.31,-36.49,0,*5C
1486533757.62,49800,9.81,72968.0,-9.13,-36.25,-36.61,0,*5E
1486533758.86,49801,9.81,72966.3,-9.13,-36.25,-36.43,0,*5F
1486533760.08,49802,9.81,72970.0,-9.13,-36.07,-36.43,0,*5C
1486533761.34,49803,9.81,72972.0,-9.11,-36.13,-36.31,0,*5F
1486533762.59,49804,9.81,72968.3,-9.13,-36.25,-36.43,0,*5A
1486533763.85,49805,9.81,72972.5,-9.13,-36.25,-36.61,0,*5B
1486533765.1,49806,9.81,72970.3,-9.13,-36.31,-36.61,0,*5D
1486533766.37,49807,9.81,72972.0,-9.11,-36.25,-36.67,0,*5D
1486533767.61,49808,9.81,72970.8,-9.13,-36.25,-36.43,0,*56
1486533768.85,49809,9.81,72970.3,-9.13,-36.31,-36.49,0,*58
1486533770.12,49810,9.81,72970.8,-9.11,-36.31,-36.61,0,*58
1486533771.36,49811,9.81,72970.5,-9.13,-36.13,-36.43,0,*5B
1486533772.65,49812,9.81,72968.0,-9.11,-36.25,-36.61,0,*5F
1486533773.89,49813,9.81,72970.5,-9.13,-36.31,-36.49,0,*53
1486533775.18,49814,9.81,72968.0,-9.11,-36.25,-36.49,0,*53
1486533776.48,49815,9.81,72970.3,-9.11,-36.25,-36.49,0,*52
1486533777.72,49816,9.81,72968.3,-9.13,-36.25,-36.67,0,*5F
1486533778.99,49817,9.81,72970.8,-9.13,-36.25,-36.49,0,*52
1486533780.24,49818,9.81,72968.0,-9.11,-36.31,-36.67,0,*56
1486533781.5,49819,9.81,72968.5,-9.11,-36.43,-36.61,0,*54
1486533782.79,49820,9.81,72968.0,-9.11,-36.13,-36.25,0,*5B
1486533784.06,49821,9.81,72970.3,-9.11,-36.13,-36.43,0,*5A
1486533785.3,49822,9.81,72970.3,-9.11,-36.31,-36.67,0,*5F
1486533786.57,49823,9.81,72970.0,-9.11,-36.31,-36.61,0,*58
1486533787.87,49824,9.81,72970.5,-9.11,-36.25,-36.61,0,*5A
1486533789.13,49825,9.81,72970.8,-9.13,-36.25,-36.49,0,*53
1486533790.37,49826,9.81,72968.3,-9.11,-36.07,-36.43,0,*58
1486533791.64,49827,9.81,72968.3,-9.11,-36.13,-36.43,0,*5C
1486533792.92,49828,9.81,72970.3,-9.11,-36.13,-36.49,0,*59
1486533794.19,49829,9.81,72974.3,-9.11,-36.13,-36.43,0,*52
1486533795.45,49830,9.81,72968.8,-9.11,-36.13,-36.43,0,*5A
1486533796.74,49831,9.81,72970.3,-9.11,-36.25,-36.49,0,*54
1486533798.01,49832,9.81,72968.8,-9.11,-36.31,-36.61,0,*58
1486533799.24,49833,9.81,72970.5,-9.09,-36.07,-36.55,0,*52
1486533800.48,49834,9.81,72972.8,-9.09,-36.07,-36.37,0,*51
1486533801.71,49835,9.81,72970.3,-9.09,-36.19,-36.37,0,*5F
1486533802.98,49836,9.81,72972.8,-9.09,-36.37,-36.61,0,*53
1486533804.2,49837,9.81,72968.5,-9.09,-36.19,-36.55,0,*59
1486533805.45,49838,9.81,72972.3,-9.09,-36.25,-36.43,0,*5E
1486533806.7,49839,9.81,72968.5,-9.07,-36.43,-36.55,0,*56
1486533807.95,49840,9.81,72970.8,-9.09,-36.25,-36.55,0,*56
1486533809.18,49841,9.81,72970.8,-9.07,-36.19,-36.43,0,*51
1486533810.44,49842,9.81,72970.0,-9.09,-36.25,-36.55,0,*54
1486533811.66,49843,9.81,72974.0,-9.09,-36.43,-36.55,0,*55
1486533812.9,49844,9.81,72974.5,-9.09,-36.19,-36.37,0,*59
1486533814.15,49845,9.81,72970.8,-9.07,-36.19,-36.37,0,*56
1486533815.41,49846,9.81,72968.3,-9.09,-36.25,-36.55,0,*50
1486533816.64,49847,9.81,72966.8,-9.07,-36.19,-36.43,0,*57
1486533817.89,49848,9.81,72970.3,-9.09,-36.25,-36.55,0,*5E
1486533819.16,49849,9.81,72968.3,-9.07,-36.25,-36.55,0,*51
1486533820.39,49850,9.81,72968.3,-9.09,-36.19,-36.55,0,*58
1486533821.65,49851,9.81,72972.3,-9.07,-36.25,-36.43,0,*5F
1486533822.92,49852,9.81,72970.0,-9.07,-36.25,-36.55,0,*5B
1486533824.19,49853,9.81,72970.3,-9.07,-36.25,-36.55,0,*5A
1486533825.46,49854,9.81,72974.3,-9.07,-36.25,-36.55,0,*5D
1486533826.75,49855,9.81,72972.3,-9.07,-36.25,-36.61,0,*5B
1486533828.02,49856,9.81,72972.0,-9.07,-36.25,-36.55,0,*5F
1486533829.27,49857,9.81,72970.0,-9.09,-36.37,-36.55,0,*53
1486533830.53,49858,9.81,72972.0,-9.07,-36.19,-36.61,0,*59
1486533831.76,49859,9.81,72968.0,-9.05,-36.19,-36.49,0,*50
1486533833.03,49860,9.81,72970.8,-9.07,-36.25,-36.43,0,*5D
1486533834.31,49861,9.81,72974.0,-9.07,-36.25,-36.61,0,*5C
1486533835.58,49862,9.81,72968.3,-9.07,-36.25,-36.55,0,*58
1486533836.82,49863,9.81,72968.0,-9.07,-36.19,-36.43,0,*51
1486533838.05,49864,9.81,72968.3,-9.07,-36.19,-36.43,0,*56
1486533839.27,49865,9.81,72968.0,-9.05,-36.19,-36.55,0,*52
1486533840.5,49866,9.81,72968.3,-9.05,-36.19,-36.37,0,*55
1486533841.76,49867,9.81,72970.5,-9.05,-36.13,-36.37,0,*5E
1486533842.98,49868,9.81,72972.3,-9.05,-36.19,-36.55,0,*5F
1486533844.21,49869,9.81,72970.3,-9.05,-36.19,-36.37,0,*5A
1486533845.43,49870,9.81,72968.8,-9.05,-36.31,-36.55,0,*5C
1486533846.68,49871,9.81,72970.5,-9.03,-36.31,-36.55,0,*5B
1486533847.94,49872,9.81,72968.5,-9.05,-36.13,-36.37,0,*5A
1486533849.2,49873,9.81,72972.5,-9.05,-36.37,-36.61,0,*5E
1486533850.44,49874,9.81,72974.0,-9.05,-36.31,-36.61,0,*5F
1486533851.7,49875,9.81,72968.0,-9.03,-36.19,-36.37,0,*51
1486533852.93,49876,9.81,72974.0,-9.05,-36.31,-36.49,0,*57
1486533854.2,49877,9.81,72970.5,-9.03,-36.31,-36.49,0,*50
1486533855.46,49878,9.81,72970.3,-9.05,-36.37,-36.61,0,*55
1486533856.7,49879,9.81,72970.0,-9.05,-36.31,-36.61,0,*52
1486533857.94,49880,9.81,72968.0,-9.03,-36.19,-36.55,0,*5F
1486533859.16,49881,9.81,72970.0,-9.05,-36.31,-36.73,0,*56
1486533860.42,49882,9.81,72974.3,-9.05,-36.49,-36.61,0,*59
1486533861.65,49883,9.81,72972.3,-9.05,-36.31,-36.55,0,*50
1486533862.89,49884,9.81,72974.5,-9.05,-36.55,-36.61,0,*52
1486533864.15,49885,9.81,72970.0,-9.05,-36.49,-36.61,0,*5E
1486533865.4,49886,9.81,72970.3,-9.05,-36.37,-36.55,0,*53
1486533866.66,49887,9.81,72970.3,-9.05,-36.37,-36.61,0,*55
1486533867.88,49888,9.81,72970.3,-9.05,-36.31,-36.55,0,*5B
1486533869.12,49889,9.81,72970.0,-9.05,-36.19,-36.49,0,*5D
1486533870.38,49890,9.81,72970.5,-9.05,-36.37,-36.49,0,*59
1486533871.67,49891,9.81,72970.8,-9.03,-36.37,-36.61,0,*54
1486533872.93,49892,9.81,72974.0,-9.03,-36.37,-36.73,0,*54
1486533874.17,49893,9.81,72968.8,-9.05,-36.37,-36.73,0,*53
1486533875.43,49894,9.81,72972.3,-9.05,-36.49,-36.61,0,*5E
1486533876.65,49895,9.81,72970.8,-9.05,-36.19,-36.55,0,*5D
1486533877.92,49896,9.81,72972.3,-9.03,-36.37,-36.55,0,*54
1486533879.21,49897,9.81,72970.3,-9.03,-36.49,-36.61,0,*5B
1486533880.45,49898,9.81,72972.5,-9.05,-36.55,-36.79,0,*56
1486533881.73,49899,9.81,72970.8,-9.03,-36.49,-36.79,0,*5C
1486533883.0,49900,9.81,72974.3,-9.05,-36.49,-36.61,0,*52
1486533884.24,49901,9.81,72970.8,-9.03,-36.31,-36.55,0,*5D
1486533885.5,49902,9.81,72972.5,-9.05,-36.37,-36.61,0,*59
1486533886.73,49903,9.81,72974.0,-9.05,-36.31,-36.55,0,*59
1486533887.95,49904,9.81,72974.8,-9.05,-36.31,-36.55,0,*5E
1486533889.21,49905,9.81,72970.3,-9.05,-36.37,-36.61,0,*5E
1486533890.43,49906,9.81,72972.3,-9.05,-36.31,-36.55,0,*5C
1486533891.69,49907,9.81,72970.0,-9.05,-36.13,-36.49,0,*50
1486533892.98,49908,9.81,72972.5,-9.03,-36.37,-36.61,0,*55
1486533894.22,49909,9.81,72970.3,-9.05,-36.31,-36.61,0,*54
1486533895.48,49910,9.81,72968.0,-9.05,-36.37,-36.61,0,*5A
1486533896.73,49911,9.81,72972.3,-9.05,-36.37,-36.55,0,*5C
1486533897.97,49912,9.81,72970.8,-9.05,-36.37,-36.73,0,*5B
1486533899.23,49913,9.81,72972.5,-9.05,-36.49,-36.61,0,*50
1486533900.5,49914,9.81,72974.5,-9.03,-36.31,-36.49,0,*54
1486533901.74,49915,9.81,72970.8,-9.03,-36.19,-36.55,0,*52
1486533903.0,49916,9.81,72972.5,-9.05,-36.13,-36.49,0,*50
1486533904.24,49917,9.81,72972.5,-9.03,-36.19,-36.55,0,*50
1486533905.5,49918,9.81,72972.8,-9.03,-36.31,-36.49,0,*58
1486533906.74,49919,9.81,72970.8,-9.05,-36.19,-36.49,0,*55
1486533908.0,49920,9.81,72968.5,-9.03,-36.31,-36.49,0,*53
1486533909.29,49921,9.81,72972.5,-9.03,-36.37,-36.61,0,*5E
1486533910.55,49922,9.81,72970.5,-9.03,-36.19,-36.37,0,*52
1486533911.79,49923,9.81,72974.5,-9.05,-36.37,-36.55,0,*5D
1486533913.05,49924,9.81,72970.8,-9.03,-36.19,-36.49,0,*5D
1486533914.31,49925,9.81,72972.3,-9.03,-36.31,-36.49,0,*56
1486533915.58,49926,9.81,72974.3,-9.03,-36.19,-36.49,0,*5F
1486533916.82,49927,9.81,72974.3,-9.03,-36.31,-36.55,0,*59
1486533918.07,49928,9.81,72968.5,-9.03,-36.31,-36.55,0,*56
1486533919.33,49929,9.81,72970.3,-8.99,-36.25,-36.43,0,*57
1486533920.62,49930,9.81,72972.0,-8.99,-36.13,-36.25,0,*5A
1486533921.88,49931,9.81,72972.5,-8.99,-35.95,-36.31,0,*53
1486533923.09,49932,9.81,72972.0,-8.97,-36.07,-36.31,0,*56
1486533924.37,49933,9.81,72974.3,-8.99,-36.13,-36.49,0,*53
1486533925.61,49934,9.81,72972.8,-8.97,-36.25,-36.43,0,*55
1486533926.87,49935,9.81,72972.8,-8.99,-36.31,-36.49,0,*55
1486533928.11,49936,9.81,72974.0,-8.99,-36.31,-36.55,0,*5B
1486533929.4,49937,9.81,72970.5,-8.99,-36.25,-36.49,0,*52
1486533930.66,49938,9.81,72974.8,-8.99,-36.31,-36.49,0,*58
1486533931.95,49939,9.81,72974.5,-8.99,-36.25,-36.49,0,*5C
1486533933.21,49940,9.81,72974.3,-8.97,-36.25,-36.49,0,*5C
1486533934.48,49941,9.81,72972.3,-8.99,-36.25,-36.55,0,*5E
1486533935.7,49942,9.81,72972.5,-8.97,-36.43,-36.67,0,*52
1486533936.94,49943,9.81,72974.3,-8.99,-36.31,-36.55,0,*59
1486533938.22,49944,9.81,72972.0,-8.99,-36.13,-36.49,0,*53
1486533939.47,49945,9.81,72968.5,-8.99,-36.13,-36.43,0,*58
1486533940.73,49946,9.81,72970.8,-8.97,-36.13,-36.25,0,*55
1486533941.97,49947,9.81,72968.8,-8.97,-35.95,-36.31,0,*5C
1486533943.24,49948,9.81,72970.0,-8.97,-36.25,-36.49,0,*54
1486533944.48,49949,9.81,72970.8,-8.99,-36.31,-36.55,0,*53
1486533945.7,49950,9.81,72974.5,-8.97,-36.31,-36.55,0,*55
1486533946.94,49951,9.81,72974.0,-8.99,-36.31,-36.67,0,*5B
1486533948.2,49952,9.81,72972.5,-8.97,-36.25,-36.49,0,*5F
1486533949.45,49953,9.81,72974.3,-8.97,-36.25,-36.55,0,*53
1486533950.73,49954,9.81,72974.8,-8.99,-36.25,-36.49,0,*57
1486533951.97,49955,9.81,72974.5,-8.97,-36.43,-36.49,0,*58
1486533953.23,49956,9.81,72974.5,-8.97,-36.25,-36.49,0,*5B
1486533954.45,49957,9.81,72972.3,-8.97,-36.31,-36.55,0,*52
1486533955.69,49958,9.81,72972.0,-8.97,-36.31,-36.49,0,*50
1486533956.93,49959,9.81,72974.0,-8.97,-36.49,-36.73,0,*57
1486533958.14,49960,9.81,72974.5,-8.97,-36.43,-36.67,0,*52
1486533959.39,49961,9.81,72974.0,-8.99,-36.31,-36.55,0,*59
1486533960.63,49962,9.81,72974.0,-8.99,-36.31,-36.55,0,*5A
1486533961.85,49963,9.81,72970.8,-8.97,-36.43,-36.55,0,*50
1486533963.1,49964,9.81,72972.3,-8.97,-36.25,-36.55,0,*57
1486533964.31,49965,9.81,72970.8,-8.97,-36.43,-36.67,0,*57
1486533965.57,49966,9.81,72972.5,-8.99,-36.49,-36.73,0,*55
1486533966.83,49967,9.81,72974.8,-8.99,-36.49,-36.73,0,*54
1486533968.07,49968,9.81,72974.5,-8.99,-36.31,-36.67,0,*51
1486533969.31,49969,9.81,72968.0,-8.97,-36.49,-36.67,0,*51
1486533970.55,49970,9.81,72970.5,-8.99,-36.43,-36.67,0,*5D
1486533971.77,49971,9.81,72974.0,-8.97,-36.43,-36.73,0,*57
1486533973.0,49972,9.81,72976.0,-8.97,-36.49,-36.85,0,*57
1486533974.23,49973,9.81,72974.3,-8.97,-36.49,-36.85,0,*56
1486533975.47,49974,9.81,72974.5,-8.97,-36.67,-36.91,0,*58
1486533976.68,49975,9.81,72972.8,-8.97,-36.55,-36.73,0,*54
1486533977.9,49976,9.81,72974.5,-8.97,-36.31,-36.55,0,*51
1486533979.11,49977,9.81,72976.3,-8.97,-36.55,-36.85,0,*5F
1486533980.37,49978,9.81,72976.3,-8.99,-36.49,-36.73,0,*5A
1486533981.61,49979,9.81,72972.0,-8.97,-36.49,-36.73,0,*55
1486533982.87,49980,9.81,72974.5,-8.99,-36.49,-36.67,0,*58
1486533984.11,49981,9.81,72972.3,-8.99,-36.43,-36.67,0,*53
1486533985.33,49982,9.81,72970.8,-8.97,-36.43,-36.55,0,*5F
1486533986.55,49983,9.81,72974.3,-8.97,-36.43,-36.55,0,*5E
1486533987.77,49984,9.81,72974.5,-8.97,-36.31,-36.55,0,*5C
1486533988.99,49985,9.81,72974.8,-8.97,-36.43,-36.55,0,*58
1486533990.23,49986,9.81,72972.0,-8.97,-36.49,-36.73,0,*55
1486533991.47,49987,9.81,72976.8,-8.97,-36.49,-36.73,0,*54
1486533992.7,49988,9.81,72972.3,-8.97,-36.49,-36.73,0,*5B
1486533993.92,49989,9.81,72974.8,-8.97,-36.43,-36.67,0,*55
1486533995.14,49990,9.81,72974.3,-8.97,-36.43,-36.67,0,*5D
1486533996.39,49991,9.81,72974.8,-8.99,-36.49,-36.85,0,*54
1486533997.66,49992,9.81,72970.8,-8.99,-36.49,-36.67,0,*5B
1486533998.92,49993,9.81,72974.3,-8.99,-36.49,-36.73,0,*5F
1486534000.15,49994,9.81,72974.8,-8.97,-36.49,-36.73,0,*56
1486534001.39,49995,9.81,72974.3,-8.99,-36.55,-36.85,0,*5D
1486534002.62,49996,9.81,72976.0,-8.99,-36.55,-36.85,0,*5E
1486534003.88,49997,9.81,72974.5,-8.99,-36.49,-36.67,0,*5E
1486534005.12,49998,9.81,72974.0,-8.99,-36.43,-36.67,0,*5B
1486534006.36,49999,9.81,72974.0,-8.97,-36.49,-36.85,0,*52
1486534007.64,50000,9.81,72974.5,-8.99,-36.49,-36.91,0,*58
1486534008.88,50001,9.81,72974.0,-8.97,-36.49,-36.73,0,*5B
1486534010.09,50002,9.81,72974.8,-8.97,-36.43,-36.67,0,*57
1486534011.33,50003,9.81,72972.0,-8.99,-36.43,-36.67,0,*58
1486534012.57,50004,9.81,72972.3,-8.97,-36.49,-36.67,0,*5B
1486534013.84,50005,9.81,72972.3,-8.99,-36.49,-36.67,0,*54
1486534015.05,50006,9.81,72972.3,-8.97,-36.43,-36.73,0,*56
1486534016.27,50007,9.81,72974.3,-8.97,-36.43,-36.67,0,*52
1486534017.51,50008,9.81,72976.3,-8.99,-36.43,-36.67,0,*53
1486534018.74,50009,9.81,72972.3,-8.97,-36.49,-36.85,0,*5A
1486534020.0,50010,9.81,72972.3,-8.97,-36.49,-36.91,0,*57
1486534021.24,50011,9.81,72976.8,-8.99,-36.55,-36.73,0,*59
1486534022.52,50012,9.81,72972.8,-8.99,-36.49,-36.91,0,*5B
1486534023.78,50013,9.81,72972.3,-8.99,-36.55,-36.91,0,*57
1486534024.99,50014,9.81,72974.8,-8.97,-36.55,-36.85,0,*5B
1486534026.22,50015,9.81,72974.0,-8.99,-36.55,-36.73,0,*5D
1486534027.44,50016,9.81,72974.0,-8.97,-36.55,-36.73,0,*50
1486534028.65,50017,9.81,72974.8,-8.97,-36.55,-36.73,0,*51
1486534029.89,50018,9.81,72974.0,-8.97,-36.49,-36.73,0,*53
1486534031.11,50019,9.81,72972.3,-8.97,-36.43,-36.55,0,*5C
1486534032.33,50020,9.81,72972.0,-8.97,-36.31,-36.55,0,*53
1486534033.57,50021,9.81,72974.3,-8.99,-36.43,-36.55,0,*59
1486534034.81,50022,9.81,72968.8,-8.99,-36.43,-36.67,0,*5B
1486534036.08,50023,9.81,72974.5,-8.99,-36.25,-36.55,0,*5B
1486534037.3,50024,9.81,72974.3,-8.97,-36.43,-36.67,0,*53
1486534038.56,50025,9.81,72976.3,-8.99,-36.43,-36.49,0,*50
1486534039.8,50026,9.81,72974.0,-8.99,-36.31,-36.55,0,*5B
1486534041.05,50027,9.81,72974.8,-8.97,-36.25,-36.55,0,*51
1486534042.31,50028,9.81,72972.8,-8.99,-36.31,-36.49,0,*58
1486534043.52,50029,9.81,72972.8,-8.97,-36.31,-36.67,0,*5B
1486534044.79,50030,9.81,72972.3,-8.99,-36.25,-36.55,0,*59
1486534046.03,50031,9.81,72978.3,-8.97,-36.13,-36.31,0,*51
1486534047.27,50032,9.81,72972.8,-8.97,-36.49,-36.67,0,*5E
1486534048.5,50033,9.81,72974.5,-8.97,-36.49,-36.73,0,*5A
1486534049.71,50034,9.81,72972.5,-8.97,-36.55,-36.85,0,*59
1486534050.95,50035,9.81,72972.5,-8.97,-36.31,-36.49,0,*5A
1486534052.17,50036,9.81,72972.3,-8.97,-36.43,-36.55,0,*51
1486534053.39,50037,9.81,72974.3,-8.97,-36.31,-36.55,0,*55
1486534054.65,50038,9.81,72972.8,-8.97,-36.25,-36.49,0,*52
1486534055.89,50039,9.81,72974.5,-8.97,-36.31,-36.49,0,*56
1486534057.11,50040,9.81,72974.5,-8.97,-36.31,-36.55,0,*55
1486534058.39,50041,9.81,72974.8,-8.95,-36.37,-36.61,0,*57
1486534059.67,50042,9.81,72972.5,-8.95,-36.37,-36.49,0,*5E
1486534060.93,50043,9.81,72974.3,-8.93,-36.37,-36.49,0,*59
1486534062.17,50044,9.81,72976.3,-8.95,-36.19,-36.43,0,*5E
1486534063.38,50045,9.81,72972.5,-8.93,-36.19,-36.43,0,*59
1486534064.64,50046,9.81,72978.5,-8.95,-36.25,-36.43,0,*53
1486534065.91,50047,9.81,72972.8,-8.95,-36.25,-36.43,0,*52
1486534067.19,50048,9.81,72972.0,-8.95,-36.25,-36.61,0,*5D
1486534068.48,50049,9.81,72972.3,-8.95,-36.25,-36.49,0,*56
1486534069.74,50050,9.81,72972.5,-8.95,-36.43,-36.61,0,*54
1486534071.01,50051,9.81,72972.3,-8.93,-36.37,-36.61,0,*50
1486534072.26,50052,9.81,72974.8,-8.93,-36.37,-36.49,0,*59
1486534073.47,50053,9.81,72976.8,-8.93,-36.19,-36.43,0,*5E
1486534074.71,50054,9.81,72974.0,-8.95,-36.43,-36.67,0,*56
1486534075.95,50055,9.81,72976.5,-8.93,-36.43,-36.61,0,*57
1486534077.19,50056,9.81,72974.0,-8.95,-36.43,-36.67,0,*54
1486534078.45,50057,9.81,72974.3,-8.93,-36.37,-36.49,0,*5C
1486534079.69,50058,9.81,72972.5,-8.93,-36.43,-36.61,0,*5A
1486534080.93,50059,9.81,72972.3,-8.93,-36.43,-36.61,0,*5B
1486534082.14,50060,9.81,72972.3,-8.93,-36.43,-36.67,0,*57
1486534083.36,50061,9.81,72974.5,-8.93,-36.43,-36.67,0,*56
1486534084.58,50062,9.81,72978.3,-8.93,-36.43,-36.67,0,*55
1486534085.81,50063,9.81,72972.3,-8.93,-36.43,-36.79,0,*5B
1486534087.07,50064,9.81,72972.8,-8.95,-36.61,-36.85,0,*59
1486534088.3,50065,9.81,72974.8,-8.93,-36.49,-36.85,0,*54
1486534089.56,50066,9.81,72972.5,-8.95,-36.43,-36.61,0,*51
1486534090.82,50067,9.81,72974.8,-8.95,-36.43,-36.61,0,*50
1486534092.06,50068,9.81,72976.3,-8.95,-36.43,-36.67,0,*59
1486534093.3,50069,9.81,72972.0,-8.95,-36.43,-36.67,0,*58
1486534094.56,50070,9.81,72974.8,-8.95,-36.43,-36.61,0,*56
1486534095.82,50071,9.81,72972.8,-8.95,-36.43,-36.49,0,*5D
1486534097.09,50072,9.81,72972.3,-8.93,-36.25,-36.49,0,*58
1486534098.3,50073,9.81,72976.0,-8.93,-36.43,-36.67,0,*55
1486534099.56,50074,9.81,72972.3,-8.93,-36.37,-36.79,0,*5E
1486534100.82,50075,9.81,72974.8,-8.95,-36.43,-36.49,0,*59
1486534102.09,50076,9.81,72978.8,-8.95,-36.25,-36.43,0,*50
1486534103.33,50077,9.81,72972.5,-8.93,-36.25,-36.43,0,*57
1486534104.59,50078,9.81,72972.5,-8.93,-36.37,-36.61,0,*5B
1486534105.85,50079,9.81,72974.5,-8.93,-36.37,-36.49,0,*50
1486534107.13,50080,9.81,72978.5,-8.95,-36.25,-36.49,0,*53
1486534108.39,50081,9.81,72972.8,-8.93,-36.37,-36.61,0,*5D